Cloud_Cover
1 69 5 1 0 0 0 0 0 0 0 0 0 0 1 1 8 19 34 71 97 100
0 3 3 4 0 0 0 0 0 0 0 47 40 100 91 14 7 27 15 17 35 69
2 0 1 1 5 1 0 0 0 0 0 0 3 12 29 3 0 18 6 5 69 66
3 12 4 0 1 17 2 0 0 0 0 0 0 4 6 11 5 64 94 36 75 50
98 29 5 95 3 5 0 3 0 0 0 0 0 0 5 3 5 49 96 80 31 13
51 98 19 26 96 5 4 1 0 0 0 0 0 0 0 2 5 10 23 79 6 0
7 24 4 31 1 54 1 0 0 0 0 0 0 0 0 0 1 13 1 15 0 1
93 23 2 2 1 4 2 0 0 0 0 1 0 0 0 1 0 3 1 0 0 6
5 2 1 65 100 59 8 2 12 10 0 23 4 0 0 0 0 0 0 0 0 0
61 25 1 6 48 45 24 30 46 44 24 3 0 0 0 0 0 0 0 0 0 0
1 21 100 100 61 100 67 25 46 25 30 12 1 0 0 0 1 6 2 4 1 0
12 92 100 100 100 100 100 100 87 43 3 7 0 29 9 11 66 10 8 11 17 52
36 100 100 93 65 100 100 98 87 99 0 5 0 52 66 96 91 68 61 12 38 100
4 55 100 100 100 72 78 23 94 46 24 5 76 99 100 96 57 50 100 100 87 100